| time (UTC) | temp C | wind direction | speed KPH | gust KPH | rain 1hr cm | rain 24hr cm | rain mn cm | humidity % | barometer mb |
| 20260504214504 | 22 | 162 | 0.0 | 4.8 | 0.00 | 0.00 | 0.00 | 78 | 1008.6 |
| 20260504213004 | 22 | 151 | 0.0 | 1.6 | 0.00 | 0.00 | 0.00 | 77 | 1008.7 |
| 20260504211503 | 22 | 121 | 1.6 | 12.9 | 0.00 | 0.00 | 0.00 | 77 | 1008.8 |
| 20260504210002 | 22 | 132 | 0.0 | 4.8 | 0.00 | 0.00 | 0.00 | 76 | 1008.7 |
| 20260504204503 | 22 | 174 | 0.0 | 0.0 | 0.00 | 0.00 | 0.00 | 78 | 1008.8 |
| 20260504203113 | 22 | 173 | 0.0 | 4.8 | 0.00 | 0.00 | 0.00 | 77 | 1008.8 |
| 20260504201601 | 22 | 268 | 0.0 | 1.6 | 0.00 | 0.00 | 0.00 | 78 | 1008.8 |
| 20260504200058 | 22 | 160 | 0.0 | 11.3 | 0.00 | 0.00 | 0.00 | 77 | 1009.0 |
| 20260504194556 | 22 | 125 | 0.0 | 8.0 | 0.00 | 0.00 | 0.00 | 78 | 1009.0 |
| 20260504193055 | 22 | 128 | 0.0 | 4.8 | 0.00 | 0.00 | 0.00 | 79 | 1009.1 |
| 20260504191604 | 22 | 123 | 0.0 | 3.2 | 0.00 | 0.00 | 0.00 | 78 | 1009.3 |
| 20260504190054 | 22 | 129 | 0.0 | 4.8 | 0.00 | 0.00 | 0.00 | 77 | 1009.5 |
| 20260504184549 | 22 | 127 | 0.0 | 11.3 | 0.00 | 0.00 | 0.00 | 78 | 1009.8 |
| 20260504183047 | 22 | 138 | 0.0 | 8.0 | 0.00 | 0.00 | 0.00 | 77 | 1010.0 |
| 20260504181549 | 22 | 210 | 0.0 | 8.0 | 0.00 | 0.00 | 0.00 | 76 | 1010.0 |
| 20260504180044 | 23 | 122 | 0.0 | 6.4 | 0.00 | 0.00 | 0.00 | 76 | 1010.3 |
| 20260504174543 | 23 | 137 | 0.0 | 8.0 | 0.00 | 0.00 | 0.00 | 77 | 1010.5 |
| 20260504173042 | 23 | 126 | 0.0 | 1.6 | 0.00 | 0.00 | 0.00 | 76 | 1010.7 |
| 20260504171539 | 23 | 134 | 0.0 | 4.8 | 0.00 | 0.00 | 0.00 | 77 | 1010.8 |
| 20260504140107 | 17 | 138 | 0.0 | 1.6 | 0.00 | 0.00 | 0.00 | 78 | 1012.7 |
| 20260504081551 | 9 | 128 | 0.0 | 0.0 | 0.00 | 0.00 | 0.00 | 97 | 1013.3 |
| 20260504044534 | 10 | 115 | 0.0 | 0.0 | 0.00 | 0.00 | 0.00 | 93 | 1012.6 |
| 20260504043030 | 10 | 115 | 0.0 | 0.0 | 0.00 | 0.00 | 0.00 | 92 | 1012.5 |
| 20260504041527 | 11 | 115 | 0.0 | 0.0 | 0.00 | 0.00 | 0.00 | 92 | 1012.4 |
| 20260504040027 | 11 | 115 | 0.0 | 1.6 | 0.00 | 0.00 | 0.00 | 92 | 1012.3 |
| 20260504034526 | 11 | 115 | 0.0 | 1.6 | 0.00 | 0.00 | 0.00 | 91 | 1012.2 |
| 20260504033025 | 11 | 115 | 0.0 | 1.6 | 0.00 | 0.00 | 0.00 | 91 | 1012.3 |
| 20260504031525 | 11 | 115 | 0.0 | 1.6 | 0.00 | 0.00 | 0.00 | 91 | 1012.1 |
| 20260504030023 | 11 | 115 | 0.0 | 3.2 | 0.00 | 0.00 | 0.00 | 92 | 1012.1 |
| 20260504024523 | 11 | 115 | 0.0 | 0.0 | 0.00 | 0.00 | 0.00 | 91 | 1012.1 |
| 20260504023023 | 11 | 115 | 0.0 | 0.0 | 0.00 | 0.00 | 0.00 | 91 | 1012.1 |
| 20260504021522 | 11 | 115 | 0.0 | 0.0 | 0.00 | 0.00 | 0.00 | 88 | 1012.1 |
| 20260504020023 | 12 | 115 | 0.0 | 0.0 | 0.00 | 0.00 | 0.00 | 88 | 1012.1 |
| 20260504014520 | 12 | 115 | 0.0 | 0.0 | 0.00 | 0.00 | 0.00 | 86 | 1012.1 |
| 20260504013026 | 12 | 115 | 0.0 | 0.0 | 0.00 | 0.00 | 0.00 | 84 | 1011.9 |
| 20260504011519 | 13 | 115 | 0.0 | 0.0 | 0.00 | 0.00 | 0.00 | 83 | 1011.7 |
| 20260504010018 | 13 | 115 | 0.0 | 0.0 | 0.00 | 0.00 | 0.00 | 83 | 1011.5 |
| 20260504004518 | 13 | 115 | 0.0 | 1.6 | 0.00 | 0.00 | 0.00 | 82 | 1011.3 |
| 20260504003018 | 13 | 115 | 0.0 | 0.0 | 0.00 | 0.00 | 0.00 | 81 | 1011.0 |
| 20260504001517 | 13 | 115 | 0.0 | 0.0 | 0.00 | 0.00 | 0.00 | 80 | 1010.9 |
| 20260504000045 | 14 | 115 | 0.0 | 0.0 | 0.00 | 0.00 | 0.00 | 79 | 1010.6 |
| 20260503234516 | 14 | 115 | 0.0 | 3.2 | 0.00 | 0.00 | 0.00 | 78 | 1010.6 |
| 20260503233016 | 15 | 115 | 0.0 | 4.8 | 0.00 | 0.00 | 0.00 | 78 | 1010.4 |
| 20260503231515 | 15 | 162 | 0.0 | 3.2 | 0.00 | 0.00 | 0.00 | 77 | 1010.2 |
| 20260503230018 | 15 | 121 | 0.0 | 3.2 | 0.00 | 0.00 | 0.00 | 76 | 1010.1 |
| 20260503224515 | 15 | 126 | 0.0 | 6.4 | 0.00 | 0.00 | 0.00 | 76 | 1010.2 |
| 20260503223016 | 15 | 120 | 0.0 | 3.2 | 0.00 | 0.00 | 0.00 | 75 | 1010.0 |
| 20260503221514 | 15 | 117 | 1.6 | 11.3 | 0.00 | 0.00 | 0.00 | 74 | 1009.9 |
| 20260503220013 | 15 | 127 | 0.0 | 8.0 | 0.00 | 0.00 | 0.00 | 74 | 1010.0 |